Погода в Юрьевце

Россия / Ивановская область     57°19′04″N   43°06′39″E
темп.,
°C
ветер,
м/с
пор.,
м/с
влажн.,
%
обл.,
%
осадки,
мм/ч
давл.,
гПа
погр.,
м
6 марта, сб
сб600:00−15зсз45890 0.0 101137
03:00−16з44940 0.0 101334
06:00−15з459694 0.1 101376
09:00−14зсз349594 0.1 1014100
12:00−10зсз248543 0.0 1014403
15:00−8з358458 0.1 1013660
18:00−11з4490100 0.1 101237
21:00−15з349362 0.1 101321
7 марта, вс
вс700:00−16зюз33950 0.0 101121
03:00−16ююз459628 0.0 100939
06:00−16ю589632 0.0 100693
09:00−11ю8139066 0.0 1002441
12:00−8ю91392100 0.8 998866
15:00−7ю91292100 1.4 994872
18:00−5ю71295100 0.9 990508
21:00−7з71393100 2.2 989555
8 марта, пн
пн800:00−12зюз568567 0.1 99084
03:00−13юз5109145 0.1 991155
06:00−11юз499470 0.3 991281
09:00−9з369283 0.4 992388
12:00−7зсз358487 0.1 994716
15:00−7ссз578894 0.2 997589
18:00−10ссз5990100 0.1 1000240
21:00−13ссз5993100 0.1 1004197
9 марта, вт
вт900:00−16ссз579582 0.0 100796
03:00−20ссз459742 0.0 100978
06:00−23ссз45960 0.0 101153
09:00−22ссз46940 0.0 1013192
12:00−18сз358924 0.0 1014374
15:00−15сз468760 0.0 1015601
18:00−18сз4593100 0.1 101670
21:00−22ссз4596100 0.1 101979
10 марта, ср
ср1000:00−25ссз459776 0.0 102056
03:00−27ссз449774 0.0 102152
06:00−29ссз449766 0.0 102356
09:00−28ссз359554 0.0 1024179
12:00−21ссз358626 0.0 1025351
15:00−17сз358428 0.0 1024476
18:00−19з45910 0.0 102443
21:00−19зсз489133 0.0 1025165